This is the latest recevied weather packets stored in our database for station/object JL1CBB-13. If no packets are shown the sender has not sent any weather packets the latest 10 day(s).
| Time | Temp. | Humidity | Pressure | Rain* | Wind** | Luminosity | Snow |
|---|---|---|---|---|---|---|---|
| 1777883735 | 24.44° C | 43% | 999 hPa | 0 mm | - | - | - |
| 1777883135 | 24.44° C | 42% | 1000 hPa | 0 mm | - | - | - |
| 1777882535 | 24.44° C | 40% | 1000 hPa | 0 mm | - | - | - |
| 1777881935 | 24.44° C | 39% | 999 hPa | 0 mm | - | - | - |
| 1777881335 | 24.44° C | 41% | 998 hPa | 0 mm | - | - | - |
| 1777880735 | 24.44° C | 43% | 998 hPa | 0 mm | - | - | - |
| 1777880135 | 24.44° C | 47% | 998 hPa | 0 mm | - | - | - |
| 1777879534 | 25° C | 49% | 997 hPa | 0 mm | - | - | - |
| 1777878934 | 25° C | 51% | 997 hPa | 0 mm | - | - | - |
| 1777878334 | 24.44° C | 55% | 997 hPa | 0 mm | - | - | - |
| 1777877734 | 24.44° C | 58% | 997 hPa | 0 mm | - | - | - |
| 1777877134 | 23.89° C | 61% | 997 hPa | 0 mm | - | - | - |
| 1777876534 | 24.44° C | 60% | 997 hPa | 0 mm | - | - | - |
| 1777875934 | 24.44° C | 61% | 997 hPa | 0 mm | - | - | - |
| 1777875334 | 25° C | 58% | 997 hPa | 0 mm | - | - | - |
| 1777874735 | 25.56° C | 58% | 996 hPa | 0 mm | - | - | - |
| 1777874135 | 26.67° C | 53% | 996 hPa | 0 mm | - | - | - |
| 1777873535 | 27.78° C | 52% | 996 hPa | 0 mm | - | - | - |
| 1777872935 | 27.78° C | 51% | 996 hPa | 0 mm | - | - | - |
| 1777872335 | 27.78° C | 52% | 996 hPa | 0 mm | - | - | - |
| 1777871735 | 27.78° C | 53% | 996 hPa | 0 mm | - | - | - |
| 1777871134 | 28.33° C | 52% | 997 hPa | 0 mm | - | - | - |
| 1777870534 | 28.89° C | 51% | 996 hPa | 0 mm | - | - | - |
| 1777869934 | 29.44° C | 50% | 996 hPa | 0 mm | - | - | - |
| 1777869334 | 29.44° C | 50% | 997 hPa | 0 mm | - | - | - |
* Rain latest hour (hover to see other rain measurements)
** Current wind speed in m/s (hover to see current wind gust speed)